Location: American Medical Response
(33.3472°N, 96.5511°W)
Time: 08:00:22
(UTC+00:00)

Meteor 1-27 Rocket - Pass Details

Date: 08 December 2021
Orbit: 831 x 908 km, 81.3° (Epoch: 17 January)

Event Time Altitude Azimuth Distance (km) Brightness Sun altitude
Rises 12:14:25 0° 349° (N) 3,440 6.6 -13.0°
Reaches altitude 10° 12:16:50 10° 347° (NNW) 2,511 5.9 -12.6°
Maximum altitude 12:22:31 72° 265° (W) 923 3.7 -11.4°
Drops below altitude 10° 12:28:18 10° 181° (S) 2,548 6.5 -10.3°
Sets 12:30:46 0° 179° (S) 3,494 7.2 -9.8°
